Portsmouth, NH

3:02 AM EST on December 11, 2017 (GMT -0500)
Pease International Tradeport

Weather History for KPSM - April, 2013

Change the Weather History Date:

Sunday, April 21, 2013

  Actual Average Record
Temperature  
Mean Temperature 42 °F -  
Max Temperature 50 °F 55 °F 82 °F (1977)
Min Temperature 33 °F 36 °F 24 °F (1979)
Degree Days  
Heating Degree Days 24    
Moisture  
Dew Point 20 °F    
Average Humidity 44    
Maximum Humidity 78    
Minimum Humidity 26    
Precipitation  
Precipitation 0.00 in - - ()
Sea Level Pressure  
Sea Level Pressure 30.50 in    
Wind  
Wind Speed 10 mph (NW)    
Max Wind Speed 17 mph    
Max Gust Speed 22 mph    
Visibility 10 miles    
Events      
Averages and records for this station are not official NWS values.
T = Trace of Precipitation, MM = Missing Value Source: NWS Daily Summary

Daily Weather History Graph

Daily Weather History Graph

Search for Another Location

Airport or City:

Trip Planner

Search our weather history database for the weather conditions in past years. The results will help you decide how hot, cold, wet, or windy it might be!

Date:

Astronomy

Apr. 21, 2013 Rise Set
Actual Time 5:51 AM EDT 7:33 PM EDT
Civil Twilight 5:21 AM EDT 8:03 PM EDT
Nautical Twilight 4:44 AM EDT 8:40 PM EDT
Astronomical Twilight 4:05 AM EDT 9:19 PM EDT
Moon 3:08 PM EDT (4/21) 3:18 AM EDT (4/21)
Length of Visible Light 14h 42m
Length of Day
13h 41m
Waxing Gibbous, 79% of the Moon is Illuminated
Apr 21
Waxing Gibbous
Apr 25
Full
May 2
Last Quarter
May 9
New
May 18
First Quarter

Hourly Weather History & Observations

Time (EDT) Temp. Windchill Dew Point Humidity Pressure Visibility Wind Dir Wind Speed Gust Speed Precip Events Conditions
12:55 AM 41.0 °F 33.9 °F 18.0 °F 40% 30.23 in 10.0 mi WNW 12.7 mph 20.7 mph N/A   Mostly Cloudy
1:55 AM 38.8 °F 31.2 °F 17.8 °F 43% 30.26 in 10.0 mi WNW 12.7 mph - N/A   Mostly Cloudy
2:55 AM 37.6 °F 29.1 °F 15.4 °F 41% 30.28 in 10.0 mi WNW 13.8 mph - N/A   Scattered Clouds
3:55 AM 36.3 °F 28.9 °F 16.2 °F 44% 30.31 in 10.0 mi West 10.4 mph - N/A   Partly Cloudy
4:55 AM 34.7 °F 27.5 °F 16.9 °F 48% 30.34 in 10.0 mi West 9.2 mph - N/A   Partly Cloudy
5:55 AM 34.2 °F 28.2 °F 17.1 °F 50% 30.38 in 10.0 mi WNW 6.9 mph - N/A   Partly Cloudy
6:55 AM 36.9 °F 30.1 °F 15.4 °F 42% 30.43 in 10.0 mi WNW 9.2 mph - N/A   Partly Cloudy
7:55 AM 39.6 °F 32.5 °F 17.6 °F 41% 30.46 in 10.0 mi NW 11.5 mph - N/A   Partly Cloudy
8:55 AM 41.7 °F 33.4 °F 17.6 °F 38% 30.48 in 10.0 mi NW 17.3 mph 21.9 mph N/A   Partly Cloudy
9:55 AM 43.7 °F 36.6 °F 17.8 °F 35% 30.50 in 10.0 mi NNW 15.0 mph - N/A   Clear
10:55 AM 45.7 °F 39.5 °F 15.4 °F 30% 30.51 in 10.0 mi NNW 13.8 mph 20.7 mph N/A   Clear
11:55 AM 47.1 °F - 15.6 °F 28% 30.53 in 10.0 mi NW 11.5 mph - N/A   Partly Cloudy
12:55 PM 49.1 °F - 16.2 °F 27% 30.53 in 10.0 mi NNW 9.2 mph - N/A   Partly Cloudy
1:55 PM 49.8 °F - 15.8 °F 26% 30.53 in 10.0 mi NNE 5.8 mph 17.3 mph N/A   Partly Cloudy
2:55 PM 49.1 °F - 20.5 °F 32% 30.54 in 10.0 mi Variable 6.9 mph - N/A   Clear
3:55 PM 47.8 °F - 23.2 °F 38% 30.55 in 10.0 mi ESE 11.5 mph - N/A   Partly Cloudy
4:55 PM 46.6 °F - 22.8 °F 39% 30.56 in 10.0 mi ESE 6.9 mph - N/A   Partly Cloudy
5:55 PM 45.9 °F 41.2 °F 20.7 °F 37% 30.57 in 10.0 mi SE 9.2 mph - N/A   Partly Cloudy
6:55 PM 42.8 °F 37.5 °F 23.0 °F 46% 30.60 in 10.0 mi SSE 9.2 mph - N/A   Partly Cloudy
7:55 PM 39.6 °F 35.4 °F 26.4 °F 59% 30.62 in 10.0 mi South 5.8 mph - N/A   Clear
8:55 PM 39.0 °F - 26.6 °F 61% 30.65 in 10.0 mi Calm Calm - N/A   Clear
9:55 PM 37.4 °F - 26.1 °F 64% 30.67 in 10.0 mi Calm Calm - N/A   Clear
10:55 PM 35.2 °F - 25.9 °F 69% 30.68 in 10.0 mi Calm Calm - N/A   Partly Cloudy
11:55 PM 33.3 °F - 27.0 °F 78% 30.69 in 10.0 mi Calm Calm - N/A   Partly Cloudy